FW8705 Weather Reports


Display with metric or nautical units.
time (UTC)temp
F
wind
direction
speed
MPH
gust
MPH
rain 1hr
in
rain 24hr
in
rain mn
in
humidity
%
barometer
mb
20260508220058 50 0 0.0 2.0 0.00 0.67 0.00 85 1019.6
20260508214609 51 0 0.0 4.0 0.00 0.68 0.67 85 1019.5
20260508213106 51 0 0.0 5.0 0.00 0.68 0.67 84 1019.5
20260508211559 51 0 0.0 4.0 0.00 0.68 0.67 84 1019.4
20260508210055 51 344 0.0 4.0 0.00 0.68 0.67 83 1019.5
20260508204619 52 5 0.0 3.0 0.00 0.69 0.67 83 1019.5
20260508203102 52 0 0.0 3.0 0.00 0.69 0.67 82 1019.3
20260508201609 53 0 0.0 5.0 0.00 0.69 0.67 82 1019.3
20260508200135 53 0 0.0 4.0 0.00 0.69 0.67 81 1019.1
20260508194556 54 0 0.0 3.0 0.00 0.69 0.67 80 1019.1
20260508193058 54 0 0.0 2.0 0.00 0.69 0.67 80 1018.9
20260508191559 54 0 0.0 4.0 0.00 0.69 0.67 80 1018.9
20260508190106 54 0 0.0 4.0 0.00 0.69 0.67 79 1018.8
20260508184555 54 0 0.0 3.0 0.00 0.81 0.67 79 1018.7
20260508183059 55 0 0.0 2.0 0.00 0.81 0.67 79 1018.5
20260508181612 55 0 0.0 5.0 0.00 0.81 0.67 78 1018.3
20260508180118 55 0 0.0 3.0 0.00 0.81 0.67 78 1018.2
20260508174608 55 0 0.0 2.0 0.00 0.81 0.67 77 1018.0
20260508173054 55 0 0.0 3.0 0.00 0.81 0.67 77 1018.1
20260508171557 56 0 0.0 1.0 0.00 0.81 0.67 76 1018.0
20260508170058 56 0 0.0 3.0 0.00 0.81 0.67 75 1017.9
20260508164557 56 0 0.0 4.0 0.00 0.81 0.67 75 1017.9
20260508163054 56 350 0.0 6.0 0.00 0.81 0.67 74 1017.9
20260508161555 56 0 0.0 3.0 0.00 0.81 0.67 76 1018.0
20260508160056 56 0 0.0 6.0 0.00 0.81 0.67 76 1018.0
20260508154558 56 0 0.0 3.0 0.00 0.81 0.67 77 1018.0
20260508153059 56 0 0.0 3.0 0.00 0.81 0.67 77 1018.0
20260508151552 56 0 0.0 2.0 0.00 0.81 0.67 78 1018.0
20260508150051 56 0 0.0 1.0 0.00 0.81 0.67 77 1018.1
20260508144556 55 0 0.0 1.0 0.00 0.81 0.67 79 1018.0
20260508143058 55 0 0.0 4.0 0.00 0.81 0.67 79 1018.1
20260508141607 55 0 0.0 1.0 0.00 0.81 0.67 79 1018.0
20260508140115 55 0 0.0 5.0 0.00 0.81 0.67 79 1018.1
20260508134556 55 5 0.0 4.0 0.00 0.81 0.67 80 1018.1
20260508133053 55 294 0.0 6.0 0.00 0.81 0.67 81 1018.1
20260508131603 54 0 0.0 8.0 0.00 0.81 0.67 81 1018.0
20260508130057 54 0 0.0 5.0 0.00 0.81 0.67 83 1018.0
20260508124559 54 0 0.0 6.0 0.00 0.81 0.67 82 1018.1
20260508123058 55 321 0.0 8.0 0.00 0.81 0.67 83 1018.1
20260508121605 54 0 0.0 4.0 0.00 0.81 0.67 82 1018.1
20260508120105 54 0 0.0 8.0 0.00 0.81 0.67 82 1018.1
20260508114553 55 0 0.0 6.0 0.00 0.81 0.67 83 1018.0
20260508113058 54 0 0.0 5.0 0.00 0.81 0.67 82 1017.9
20260508111559 54 0 0.0 3.0 0.00 0.81 0.67 84 1018.0
20260508104600 53 344 0.0 4.0 0.00 0.81 0.67 86 1017.8
20260508103120 54 0 0.0 1.0 0.00 0.81 0.67 85 1017.8
20260508101614 54 0 0.0 2.0 0.00 0.81 0.67 84 1017.9
20260508100100 53 0 0.0 3.0 0.00 0.81 0.67 86 1017.8
20260508094615 53 0 0.0 3.0 0.00 0.81 0.67 87 1017.8
20260508093102 53 0 0.0 2.0 0.00 0.81 0.67 88 1017.8
20260508091556 52 0 0.0 3.0 0.00 0.81 0.67 87 1017.9
20260508090115 52 0 0.0 4.0 0.00 0.81 0.67 88 1017.8
20260508084600 52 0 0.0 2.0 0.00 0.81 0.67 89 1017.7
20260508083112 52 0 0.0 3.0 0.00 0.81 0.67 90 1017.6
20260508081556 52 0 0.0 6.0 0.00 0.81 0.67 91 1017.5
20260508080054 51 0 1.0 8.0 0.00 0.81 0.67 93 1017.4
20260508074554 51 0 0.0 4.0 0.00 0.81 0.67 96 1017.4
20260508073055 50 0 0.0 0.0 0.00 0.81 0.67 96 1017.4
20260508071555 50 0 0.0 2.0 0.00 0.81 0.67 96 1017.3
20260508070053 49 0 0.0 2.0 0.00 0.81 0.67 96 1017.2
20260508064558 50 0 0.0 2.0 0.00 0.81 0.67 96 1017.1
20260508063054 50 0 0.0 4.0 0.00 0.81 0.67 96 1016.9
20260508061600 50 0 0.0 5.0 0.02 0.81 0.67 96 1016.7
20260508060056 49 0 0.0 5.0 0.06 0.81 0.67 96 1016.6
20260508054603 49 0 0.0 1.0 0.10 0.81 0.67 97 1016.5
20260508053055 49 0 0.0 3.0 0.15 0.81 0.67 96 1016.3
20260508051553 49 0 0.0 3.0 0.18 0.78 0.65 96 1016.2
20260508050057 49 0 0.0 3.0 0.16 0.74 0.61 96 1016.0
20260508044553 49 0 0.0 0.0 0.12 0.70 0.57 96 1016.4
20260508043101 49 0 0.0 2.0 0.07 0.65 0.51 96 1016.3
20260508041603 49 0 0.0 4.0 0.02 0.60 0.47 96 1016.4
20260508040100 49 0 0.0 3.0 0.00 0.58 0.44 96 1016.1
20260508034557 49 0 0.0 1.0 0.00 0.58 0.44 96 1015.9
20260508033058 49 0 0.0 4.0 0.00 0.58 0.44 96 1015.8
20260508031558 49 0 0.0 8.0 0.00 0.58 0.44 96 1015.7
20260508030105 50 348 1.0 8.0 0.00 0.58 0.44 96 1015.6
20260508024552 50 0 0.0 5.0 0.00 0.58 0.44 96 1015.6
20260508023058 50 0 0.0 8.0 0.00 0.58 0.44 96 1015.3
20260508021555 50 0 0.0 2.0 0.00 0.58 0.44 96 1015.3
20260508020100 50 0 0.0 5.0 0.00 0.58 0.44 96 1015.0
20260508014556 50 0 0.0 3.0 0.00 0.58 0.44 96 1015.0
20260508013052 50 0 0.0 4.0 0.01 0.58 0.44 96 1015.0
20260508011555 50 0 0.0 5.0 0.03 0.58 0.44 96 1015.0
20260508010054 50 345 0.0 3.0 0.11 0.58 0.44 96 1015.1
20260508004558 51 0 0.0 5.0 0.37 0.57 0.44 96 1015.1
20260508003106 51 0 0.0 5.0 0.41 0.56 0.43 96 1015.2
20260508001558 52 0 0.0 3.0 0.40 0.54 0.40 97 1015.3
20260508000053 52 0 0.0 6.0 0.33 0.47 0.33 97 1015.2
20260507234557 52 0 0.0 5.0 0.05 0.19 0.06 97 1015.4
20260507233055 52 5 0.0 6.0 0.00 0.14 0.01 96 1015.4
20260507231555 53 0 0.0 3.0 0.00 0.14 0.00 96 1015.3
20260507230055 53 0 0.0 4.0 0.00 0.14 0.00 96 1015.2
20260507224615 53 0 0.0 3.0 0.00 0.14 0.00 96 1015.0
20260507223100 54 0 0.0 1.0 0.00 0.14 0.00 96 1015.0
20260507221554 54 340 0.0 3.0 0.00 0.13 0.00 96 1014.9